Location: Hagen
(51.3456°N, 7.4557°E)
Time: 16:14:40
(UTC+02:00)

Envisat - Visible Passes

Search period start: 22 April 2018 00:00
Search period end: 02 May 2018 00:00
Orbit: 764 x 766 km, 98.2° (Epoch: 22 April)

Date Brightness Start Highest point End Pass type
(mag) Time Alt. Az. Time Alt. Az. Time Alt. Az.
22 Apr 5.6 22:12:42 10° SW 22:16:00 17° W 22:19:19 10° NW visible
23 Apr 4.7 21:34:18 10° SSW 21:38:52 33° W 21:43:28 10° NNW visible
24 Apr 6.1 22:41:25 10° W 22:41:59 10° W 22:42:34 10° WNW visible
25 Apr 5.5 22:00:55 10° SW 22:04:42 21° W 22:08:32 10° NW visible
26 Apr 4.4 21:22:53 10° SSW 21:27:38 40° W 21:32:27 10° NNW visible
27 Apr 5.8 22:28:24 10° WSW 22:30:39 13° W 22:32:55 10° WNW visible
28 Apr 5.2 21:49:16 10° SSW 21:53:26 25° W 21:57:39 10° NW visible
30 Apr 5.6 22:16:18 10° SW 22:19:20 16° W 22:22:25 10° NW visible
01 May 4.9 21:37:43 10° SSW 21:42:11 31° W 21:46:41 10° NNW visible
